Tracking 20628 objects as of 6-Apr-2020
HD Live streaming from Space Station
objects crossing your sky now

CP5

Track CP5 now!
10-day predictions
CP5 is classified as:


NORAD ID: 38763
Int'l Code: 2012-048F
Perigee: 490.3 km
Apogee: 692.8 km
Inclination: 64.7 °
Period: 96.4 minutes
Semi major axis: 6962 km
RCS: Unknown
Launch date: September 13, 2012
Source: United States (US)
Launch site: AIR FORCE WESTERN TEST RANGE (AFWTR)

Uplink (MHz):
Downlink (MHz): 437.405
Beacon (MHz): 437.405
Mode: 1200bps AFSK CW
Call sign: CP5
Status: Inactive

aabbcc
Your satellite tracking list
Your tracking list is empty




NASA's NSSDC Master Catalog

Two Line Element Set (TLE):
1 38763U 12048F   20094.35339581 +.00000289 +00000+0 +36660-4 0   134
2 38763  64.6635  91.9088 0145436 161.0662 199.5940 14.94332188152164
Source of the keplerian elements: Caltech